Location: La Trinit�
(48.1620°N, 3.4512°W)
Time: 04:09:12
(UTC+00:00)

Cosmos 2228 Rocket - Pass Details

Date: 08 May 2021
Orbit: 619 x 651 km, 82.5° (Epoch: 13 June)

Event Time Altitude Azimuth Distance (km) Brightness Sun altitude
Exits shadow 22:17:36 49° 142° (SE) 813 3.2 -19.8°
Maximum altitude 22:18:28 60° 96° (E) 723 3.1 -19.9°
Drops below altitude 10° 22:22:52 10° 16° (NNE) 2,020 6.3 -20.2°
Sets 22:25:08 0° 13° (NNE) 2,938 7.3 -20.4°
